Location: Arroyo Chiquero
(40.4328°N, 4.8818°W)
Time: 21:26:03
(UTC+00:00)

Daily predictions for brighter satellites

Satellite Brightness Start Highest point End
(mag) Time Altitude Azimuth Time Altitude Azimuth Time Altitude Azimuth
Meteor 1-13 Rocket 4.3 20:16:45 10° S 20:22:29 85° E 20:28:09 10° N
SL-14 R/B 3.9 20:23:57 10° SSE 20:27:23 34° E 20:30:51 10° NNE
SL-4 R/B 4.2 20:27:09 10° NNW 20:29:55 19° NNE 20:32:48 10° ENE
Cosmos 2333 Rocket 2.7 20:24:42 10° NNW 20:30:18 49° ENE 20:35:52 10° SE
Cosmos 1655 Rocket 4.4 20:26:16 10° SSE 20:32:20 47° E 20:38:24 10° NNE
BlueWalker 3 2.1 20:29:02 10° SW 20:32:47 74° NW 20:36:32 10° NE
Cosmos 968 Rocket 3.5 20:28:42 10° S 20:33:45 62° ESE 20:38:53 10° NNE
SL-24 R/B 4.0 20:29:21 10° SSE 20:33:48 86° ENE 20:37:45 10° N
Cosmos 1833 4.2 20:31:38 10° SSW 20:37:12 70° ESE 20:42:48 10° NNE
CZ-4C R/B 3.8 20:33:41 10° NNE 20:37:38 43° E 20:41:27 10° S
Cosmos 1932 4.5 20:32:48 10° SSW 20:39:07 74° ESE 20:45:24 10° NE
ASTRO E2 4.3 20:40:26 10° SW 20:42:31 15° S 20:44:34 10° SSE
CARTOSAT-1 4.4 20:38:34 10° S 20:42:41 48° W 20:46:50 10° NNW
Cosmos 1733 Rocket 3.8 20:40:04 10° N 20:44:09 36° ENE 20:47:58 11° SE
Resurs 01 Rocket 2.7 20:39:57 10° S 20:44:10 45° W 20:48:23 10° NNW
Cosmos 1356 Rocket 3.5 20:40:16 10° S 20:44:23 59° E 20:48:31 10° NNE
Meteor 1-23 Rocket 4.2 20:39:25 10° S 20:45:05 79° E 20:50:51 10° NNE
Cosmos 1850 Rocket 4.4 20:41:20 10° SSW 20:46:32 69° WNW 20:51:43 10° NNE
Cosmos 2322 Rocket 2.3 20:45:18 10° NNW 20:51:00 82° WSW 20:56:42 10° SSE
USA 234 3.8 20:47:03 10° ENE 20:52:49 33° SE 20:58:33 10° S
MOS 1 4.3 20:48:14 10° SSE 20:53:51 78° ENE 20:59:30 10° N
Cosmos 2297 Rocket 4.1 20:54:03 10° ESE 20:55:03 10° E 20:56:03 10° E
Atlas Centaur 2 4.3 20:52:55 10° WSW 20:58:10 21° SSW 21:03:40 10° SSE
CZ-4 R/B 4.2 20:56:44 10° SW 20:58:55 14° W 21:01:07 10° WNW
ARGOS Delta rocket 3.6 20:54:39 10° SSE 20:59:01 73° ENE 21:03:25 10° N
Cosmos 1758 3.2 20:55:10 10° N 20:59:06 71° E 21:02:42 12° SSE
MOS 1 Rocket 4.4 20:58:40 14° SE 21:02:43 36° ENE 21:07:25 10° N
Cosmos 1300 2.4 20:59:33 10° N 21:03:06 77° E 21:06:06 14° SSE
Delta 2 Rocket 4.2 21:04:57 10° SSW 21:07:16 18° SSE 21:07:20 18° SSE
Cosmos 2219 Rocket 2.5 21:01:50 10° NNW 21:07:25 54° ENE 21:11:43 17° SE
ERS-1 Rocket 3.3 21:03:31 15° SE 21:07:35 53° ENE 21:12:27 10° N
Cosmos 1814 Rocket 4.1 21:03:07 10° NNW 21:08:25 66° ENE 21:12:36 17° SSE
Cosmos 2315 Rocket 4.0 21:03:45 10° N 21:10:10 82° E 21:16:21 11° S
Terra 2.2 21:07:31 17° SE 21:10:55 46° ENE 21:15:27 10° N
SPOT 5 2.7 21:09:54 13° S 21:13:48 82° WSW 21:18:18 10° NNW
Meteor 1-4 Rocket 1.9 21:16:04 16° S 21:18:17 77° E 21:21:17 10° NNE
Aureole 3 3.7 21:18:08 11° S 21:22:15 81° E 21:27:38 10° N
Landsat 4 4.3 21:24:23 25° ESE 21:25:44 35° ENE 21:28:53 10° N
Cosmos 2084 Rocket 4.4 21:25:43 24° SE 21:26:54 27° ESE 21:30:30 10° ENE
Okean-O 3.9 21:24:40 10° SSW 21:28:45 37° W 21:32:52 10° NNW
CZ-4C R/B 2.0 21:28:14 15° S 21:31:29 43° ESE 21:36:18 10° NE
SJ 16-02 2.6 21:27:44 10° SW 21:31:50 42° WNW 21:35:58 10° N
SPOT 3 Rocket 3.7 21:30:22 23° SE 21:33:33 59° ENE 21:38:37 10° N
COSMOS 2428 3.4 21:28:28 10° N 21:33:52 42° ENE 21:37:11 21° ESE
Cosmos 1953 2.7 21:31:02 10° N 21:34:40 42° E 21:36:01 30° SE
Cosmos 1455 2.7 21:33:00 10° N 21:36:18 38° ENE 21:37:15 31° ESE
Cosmos 2360 Rocket 3.1 21:31:08 10° NW 21:36:29 44° WSW 21:41:02 14° S
BREEZE-M DEB (TANK) 3.5 21:34:32 10° SW 21:39:51 - ENE 21:36:21 29° SSW
USA 245 3.6 21:34:55 23° S 21:37:23 81° WSW 21:42:22 10° NNW
Spot 2 Rocket 3.5 21:34:54 23° SSE 21:38:07 77° ENE 21:43:14 10° N
Okean O Rocket 4.2 21:35:55 10° SW 21:38:33 16° W 21:41:13 10° NW
ATLAS 2AS CENTAUR R/B 3.2 21:34:12 10° NW 21:40:42 51° WSW 21:45:21 19° S
Cosmos 1703 Rocket 3.7 21:41:35 28° SSE 21:43:40 54° E 21:48:01 10° NNE
Cosmos 1242 Rocket 1.7 21:44:43 61° ESE 21:44:47 61° E 21:47:29 10° NNE
Okean 1-7 2.9 21:42:51 20° S 21:45:49 88° W 21:50:09 10° N
Cosmos 1315 Rocket 3.0 21:44:20 17° SSW 21:47:22 70° WNW 21:51:21 10° N
SL-23 DEB 4.3 21:48:12 35° SE 21:48:33 36° SE 21:53:12 10° ENE
SeaSat 1 2.5 21:52:49 31° SE 21:55:09 69° ENE 22:00:03 10° NNW
Cosmos 2208 Rocket 4.3 21:51:17 10° N 21:56:20 52° ENE 21:58:30 31° SE
COSMOS 2455 2.7 21:51:08 10° SSW 21:57:08 77° ESE 22:03:10 10° NNE
Landsat 5 3.4 21:56:33 10° NNE 22:00:42 66° E 22:02:11 38° S
Cosmos 1408 3.7 22:02:06 23° ENE 22:02:06 23° ENE 22:03:50 10° NNE
Ariane Rocket 3.2 22:00:37 26° S 22:03:26 67° WSW 22:08:32 10° NNW
Cosmos 158 Rocket 4.1 21:59:58 10° NNW 22:05:10 60° ENE 22:07:05 36° SE
SL-4 R/B 2.3 22:05:22 10° NW 22:09:15 59° NE 22:10:36 37° E
Cosmos 1486 Rocket 3.9 22:08:49 29° S 22:11:28 74° ESE 22:16:40 10° NNE
CENTAUR R/B 3.1 22:11:56 28° ESE 22:12:08 28° ESE 22:17:26 10° NE
Okean 2 4.5 22:09:45 17° SW 22:12:28 40° WNW 22:16:17 10° N
Cosmos 2333 Rocket 4.0 22:09:44 10° NW 22:14:12 24° WSW 22:18:12 12° SSW
NOSS 5 (C) 4.1 22:11:14 10° NW 22:14:23 87° SW 22:14:29 83° SSE
Cosmos 2237 Rocket 3.1 22:12:12 10° N 22:17:26 37° ENE 22:19:45 26° ESE
Cosmos 2227 Rocket 3.0 22:18:48 30° ESE 22:19:12 30° ESE 22:24:04 10° NE
Cosmos 2322 4.1 22:24:55 10° NNW 22:30:26 55° WSW 22:32:34 35° SSW
Cosmos 1980 4.1 22:26:21 10° NNW 22:31:53 51° ENE 22:33:48 36° ESE
Cosmos 2242 Rocket 3.6 22:31:20 56° SE 22:32:02 67° E 22:36:35 10° NNE
Cosmos 1354 Rocket 4.2 22:31:07 46° SE 22:32:02 51° ESE 22:37:10 10° NNE
Cosmos 1709 Rocket 4.0 22:33:28 39° SSE 22:35:51 67° E 22:42:08 10° NNE
USA 234 3.5 22:29:35 10° NE 22:36:05 69° NW 22:42:33 10° WSW
Cosmos 2297 Rocket 2.1 22:35:31 33° SSW 22:38:09 87° ESE 22:43:49 10° NNE
Cosmos 1782 Rocket 3.7 22:42:25 10° NNW 22:46:42 62° W 22:47:21 54° SW
Cosmos 371 Rocket 3.8 22:45:02 28° SW 22:47:21 56° WNW 22:52:07 10° N
Terra 4.0 22:46:13 12° SW 22:48:44 17° W 22:51:51 10° NW
Cosmos 2219 Rocket 4.0 22:46:48 10° NW 22:50:53 21° W 22:53:26 15° SW
Cosmos 2219 4.2 22:51:46 30° E 22:51:46 30° E 22:56:19 10° NE
USA 281 3.7 22:50:46 32° ESE 22:53:31 52° ENE 22:59:51 10° NNW
Cosmos 1300 Rocket 3.6 22:49:24 10° NNW 22:53:40 63° W 22:54:07 59° SW
Meteor 1-24 Rocket 3.7 22:52:47 52° SSE 22:54:07 72° E 22:59:40 10° NNE
Cosmos 1703 3.3 22:55:32 68° N 22:55:32 68° N 22:58:47 10° N
Cosmos 773 Rocket 3.9 22:51:01 10° NNW 22:56:13 90° E 22:57:07 62° SSE
ARIANE 5 R/B 2.5 22:57:21 69° E 22:57:33 71° ENE 23:01:54 10° N
PSLV R/B 4.0 22:55:40 10° NNE 22:59:11 62° ENE 22:59:11 62° ENE
Cosmos 2263 Rocket 3.5 23:01:07 24° E 23:01:07 24° E 23:04:57 10° NE
GP-B 3.9 22:59:37 10° NNW 23:03:48 43° W 23:04:43 38° WSW
Cosmos 1378 Rocket 3.8 23:10:40 56° ENE 23:10:40 56° ENE 23:14:39 10° NNE
Cosmos 1674 Rocket 4.0 23:14:09 49° ENE 23:14:09 49° ENE 23:17:52 10° NNE
COSMOS 2428 4.0 23:13:08 10° NW 23:17:51 27° WSW 23:19:10 25° SW
NOSS 3-2 (A) 3.1 23:18:38 57° ESE 23:18:38 57° ESE 23:24:11 10° NE
CZ-4C R/B 4.1 23:16:18 10° W 23:20:06 25° NW 23:24:39 10° NNE
Cosmos 1825 3.6 23:23:13 29° NNE 23:23:13 29° NNE 23:25:08 10° NNE
CZ-3 Stage 3 4.3 22:47:23 10° W 23:21:56 44° SW 23:25:33 36° S
NOSS 3-2 (C) 4.4 23:30:22 26° E 23:30:22 26° E 23:34:04 10° NE
Cosmos 2151 Rocket 3.6 23:27:43 10° N 23:31:48 73° NNE 23:31:48 73° NNE
H-2A R/B 2.6 23:32:47 75° NNW 23:32:47 75° NNW 23:36:39 10° NNW
Cosmos 1892 3.8 23:34:58 39° N 23:34:58 39° N 23:37:17 10° N
Cosmos 2098 Rocket 3.9 23:30:34 10° NNW 23:36:58 68° W 23:38:07 55° SSW
Okean 2 Rocket 3.1 23:32:35 10° N 23:36:50 76° NNE 23:36:50 76° NNE
ALOS 2 2.7 23:42:15 67° NE 23:42:15 67° NE 23:46:20 10° N
Cosmos 405 Rocket 4.0 23:41:29 10° NNW 23:44:11 35° WNW 23:44:11 35° WNW
Aureole 1 Rocket 3.7 23:48:39 44° NE 23:48:39 44° NE 23:52:08 10° NNE
SL-4 R/B 4.4 23:44:34 10° W 23:45:19 14° W 23:45:19 14° W
Cosmos 1937 Rocket 4.5 23:48:31 33° E 23:48:31 33° E 23:52:45 10° NE
